#timestamp,LO_Frequency,Hit,StdDev 
1632056415.2,286046999.7,N
1632056435.9,286047001.5,N
1632056455.7,286047004.2,Y
1632056475.6,286047004.0,P
1632056495.4,286047002.5,N
1632056515.2,286047002.4,N
1632056535.1,286046999.7,N
1632056536.0,286046999.7,N
1632056555.8,286047000.4,N
1632056575.7,286047000.0,N
1632056595.5,286047001.1,N
1632056615.4,286047000.6,N
1632056635.2,286047001.7,N
1632056655.0,286047001.7,N
1632056655.9,286047001.7,N
1632056675.8,286047003.9,Y
1632056695.6,286047000.9,P
1632056715.5,286047000.2,N
1632056735.3,286046999.9,N
1632056755.2,286047000.7,N
1632056775.9,286047000.7,N
1632056795.7,286046999.9,N
1632056815.6,286047000.9,N
1632056835.4,286046998.8,N
1632056855.2,286046999.1,N
1632056875.1,286046998.9,N
1632056876.0,286046998.9,N
1632056895.8,286046999.0,N
1632056915.7,286046998.5,N
1632056935.5,286046998.8,N
1632056955.3,286046998.6,N
1632056975.2,286046996.6,Y
1632056995.0,286046998.6,P
1632056995.9,286046998.6,N
1632057015.8,286046999.2,N
1632057065.6,286047002.2,E
1632057075.6,286047002.7,N
1632057095.4,286047002.2,P
1632057115.2,286046999.1,P
1632057135.1,286046999.2,N
1632057136.0,286046999.2,N
1632057155.8,286046999.4,N
1632057175.7,286047000.8,N
1632057195.5,286047002.8,N
1632057215.3,286047002.2,N
1632057235.2,286047002.2,N
1632057255.9,286047002.3,N
1632057275.7,286047004.3,N
1632057295.6,286047004.1,N
1632057315.4,286047004.2,N
1632057335.3,286047003.9,N
1632057355.1,286047002.1,N
1632057356.0,286047002.1,N
1632057375.8,286047001.7,N
1632057395.7,286046999.7,N
1632057415.5,286047002.5,N
1632057435.3,286047000.4,N
1632057455.2,286046998.3,N
1632057475.0,286047000.8,N
1632057475.9,286047000.8,N
1632057495.8,286047000.5,N
1632057515.6,286046999.7,N
1632057535.4,286047002.0,N
1632057555.3,286047004.3,N
1632057575.1,286047004.3,N
1632057595.9,286047001.6,N
1632057615.7,286047004.2,N
1632057635.5,286047004.1,N
1632057655.4,286047003.8,N
1632057675.2,286047003.3,N
1632057695.0,286047001.6,N
1632057695.9,286047001.6,N
1632057715.8,286047003.1,N
1632057735.6,286047003.4,N
1632057755.5,286047003.9,N
1632057775.3,286047001.5,N
1632057795.1,286047004.4,N
1632057815.9,286047002.7,N
1632057835.7,286047002.7,N
1632057855.5,286046999.9,N
1632057875.4,286047002.3,N
1632057895.2,286047002.2,N
1632057915.1,286046999.7,N
1632057916.0,286046999.7,N
1632057935.8,286047004.4,N
1632057955.6,286047003.8,N
1632057975.5,286047001.8,N
1632057995.3,286047001.7,N
1632058015.2,286047001.5,N
1632058035.9,286047002.5,N
1632058055.7,286047001.5,N
1632058075.6,286047002.4,N
1632058095.4,286046999.7,N
1632058115.2,286047000.3,N
1632058135.1,286047002.2,N
1632058136.0,286047002.2,N
1632058155.8,286047004.2,N
1632058175.7,286047004.0,N
1632058195.5,286047001.0,N
1632058215.3,286047000.4,N
1632058235.2,286047000.3,N
1632058255.0,286047002.7,N
1632058255.9,286047002.7,N
1632058275.7,286047002.4,N
1632058295.6,286047000.2,N
1632058315.4,286047001.5,N
1632058335.3,286047001.8,N
1632058355.1,286047001.9,N
1632058375.8,286047003.7,N
1632058395.7,286047001.7,N
1632058415.5,286047003.9,N
1632058435.4,286047001.7,N
1632058455.2,286047001.6,N
1632058475.0,286047001.7,N
1632058475.9,286047001.7,N
1632058495.8,286047001.6,N
1632058515.6,286047001.5,N
1632058535.5,286047001.6,N
1632058555.3,286047002.6,N
1632058575.1,286047001.8,N
1632058595.9,286047003.4,Y
1632058615.7,286047000.0,P
1632058635.6,286047002.7,N
1632058655.4,286047002.3,N
1632058675.2,286047002.8,N
1632058695.1,286047001.1,N
1632058696.0,286047001.1,N
1632058715.8,286046998.5,N
1632058735.6,286047001.2,N
1632058755.5,286047001.2,N
1632058775.3,286047001.2,N
1632058795.2,286047001.1,N
1632058815.9,286047000.4,N
1632058835.7,286047000.2,N
1632058855.6,286047000.5,N
1632058875.4,286047001.0,N
1632058895.3,286047002.4,N
1632058915.1,286046999.9,N
1632058916.0,286046999.9,N
1632058935.8,286047000.9,N
1632058955.7,286046998.3,N
1632058975.5,286046998.4,N
1632058995.3,286046998.4,N
1632059015.2,286046997.0,N
1632059035.0,286047001.2,N
1632059035.9,286047001.2,N
1632059055.8,286046998.3,N
1632059075.6,286046996.9,N
1632059095.4,286046996.6,N
1632059115.3,286046999.6,N
1632059135.1,286046996.9,N
1632059155.9,286046996.7,N
1632059175.7,286046996.5,N
1632059195.5,286046996.5,N
1632059215.4,286046996.5,N
1632059235.2,286046997.1,N
1632059255.0,286046997.3,N
1632059255.9,286046997.3,N
1632059275.8,286046998.8,N
1632059295.6,286046998.5,N
1632059315.5,286046999.5,N
1632059335.3,286046998.8,N
1632059355.1,286046998.7,N
1632059375.9,286046999.0,N
1632059395.7,286046998.8,N
1632059415.5,286046998.5,N
1632059435.4,286046998.2,N
1632059455.2,286046998.6,N
1632059475.1,286047000.8,N
1632059476.0,286047000.8,N
1632059495.8,286046998.9,N
1632059515.6,286046998.2,N
1632059535.5,286046998.1,N
1632059555.3,286047006.0,Y
1632059575.2,286047010.4,P
1632059595.9,286047007.1,N
1632059615.7,286047001.6,N
1632059635.6,286047002.0,N
1632059655.4,286047001.9,N
1632059675.2,286047001.6,N
1632059695.1,286047003.9,N
1632059696.0,286047003.9,N
1632059715.8,286047003.0,N
1632059735.7,286047003.9,N
1632059755.5,286047003.6,N
1632059775.3,286047005.7,N
1632059795.2,286047005.7,N
1632059815.0,286047003.2,N
1632059815.9,286047003.2,N
1632059835.8,286047005.2,N
1632059855.6,286047003.1,N
1632059875.4,286047003.3,N
1632059895.7,286047003.8,N
1632059915.6,286047005.8,N
1632059935.4,286047003.4,N
1632059955.2,286047003.2,N
1632059975.1,286047003.5,N
1632059976.0,286047003.5,N
1632059995.8,286047003.6,N
